Regional Weather Roundup
Issued by NWS

Home | Current Version | Previous Version | Graphics & Text | Print | Product List | Glossary On
Versions: 1 2 3 4 5 6 7 8 9 10 11 12 13 14 15 16 17 18 19 20 21 22 23 24 25 26 27 28 29 30 31 32 33 34 35 36 37 38 39 40 41 42 43 44 45 46 47 48 49 50
135
ASUS43 KFSD 270702
RWRSD

WEATHER ROUNDUP FOR SOUTH DAKOTA
NATIONAL WEATHER SERVICE SIOUX FALLS SD
200 AM CDT FRI APR 27 2018

NOTE: "FAIR" INDICATES FEW OR NO CLOUDS BELOW 12,000 FEET WITH NO
SIGNIFICANT WEATHER AND/OR OBSTRUCTIONS TO VISIBILITY.


SDZ001>005-009-010-012>017-270800-
NORTHWEST AND NORTH CENTRAL SOUTH DAKOTA

CITY           SKY/WX    TMP DP  RH WIND       PRES   REMARKS
BUFFALO          N/A     45  32  60 W10       29.98F
FAITH            N/A     47  34  60 W10       30.02F
MOBRIDGE       CLEAR     47  34  60 NW8       29.92F
$$

SDZ012>016-024>037-041>051-057-063-072>074-270800-
SOUTHWEST AND SOUTH CENTRAL SOUTH DAKOTA

CITY           SKY/WX    TMP DP  RH WIND       PRES   REMARKS
RAPID CTY ARPT CLEAR     39  30  70 W6        30.09F
PIERRE         CLEAR     45  33  63 W10       29.98F
CUSTER         CLEAR     45  20  36 NW3       30.15S
ELLSWORTH AFB  CLEAR     40  32  74 W7        30.08F
PHILIP         CLEAR     39  32  76 W9        30.05F
PINE RIDGE     CLEAR     33  31  92 E3        30.11F
SPEARFISH      FAIR      48  28  46 W8        30.11S
WINNER         FAIR      47  31  53 SW8       30.03F
$$

SDZ004>011-016>023-039-040-270800-
NORTHEAST SOUTH DAKOTA

CITY           SKY/WX    TMP DP  RH WIND       PRES   REMARKS
ABERDEEN       CLEAR     37  31  78 SW9       29.89F
WATERTOWN      PTCLDY    41  32  70 SW15      29.91F
BROOKINGS      CLEAR     43  34  70 SW10      29.95F
SISSETON         N/A     49  32  52 SW22G30   29.81F
$$

SDZ017-020-022-023-036>040-048>070-270800-
SOUTHEAST SOUTH DAKOTA

CITY           SKY/WX    TMP DP  RH WIND       PRES   REMARKS
SIOUX FALLS    CLEAR     39  32  76 SW3       29.99F
HURON          CLEAR     45  32  60 SW10      29.95F
CHAMBERLAIN    CLEAR     45  33  62 W8        30.00F
MITCHELL       CLEAR     45  33  63 SW8       29.99F
YANKTON        CLEAR     41  33  73 S3        30.02F
$$

ABBREVIATIONS USED IN REMARKS
   TC - TEMPERATURE IN CELSIUS
  WCI - WIND CHILL INDEX
   HX - HEAT INDEX
  VSB - VISIBILITY





USA.gov is the U.S. government's official web portal to all federal, state and local government web resources and services.